| time (UTC) | temp F | wind direction | speed MPH | gust MPH | rain 1hr in | rain 24hr in | rain mn in | humidity % | barometer mb |
| 20260903013805 | 64 | 34 | 0.0 | 0.0 | 0.00 | 0.14 | 0.14 | 99 | 1020.3 |
| 20260903013304 | 64 | 19 | 0.0 | 0.0 | 0.00 | 0.14 | 0.14 | 99 | 1020.4 |
| 20260903012803 | 64 | 35 | 1.0 | 1.0 | 0.00 | 0.14 | 0.14 | 99 | 1020.2 |
| 20260903012257 | 64 | 357 | 1.0 | 1.0 | 0.00 | 0.14 | 0.14 | 99 | 1020.3 |
| 20260903011751 | 64 | 341 | 1.0 | 2.0 | 0.00 | 0.14 | 0.14 | 99 | 1020.2 |
| 20260903011251 | 64 | 31 | 1.0 | 1.0 | 0.00 | 0.14 | 0.14 | 99 | 1019.9 |
| 20260903010746 | 64 | 10 | 0.0 | 0.0 | 0.00 | 0.14 | 0.14 | 99 | 1019.8 |
| 20260903010242 | 64 | 70 | 1.0 | 1.0 | 0.00 | 0.14 | 0.14 | 99 | 1019.5 |
| 20260903005740 | 64 | 6 | 0.0 | 0.0 | 0.00 | 0.14 | 0.14 | 99 | 1019.5 |
| 20260903005235 | 64 | 344 | 3.0 | 3.0 | 0.00 | 0.14 | 0.14 | 99 | 1019.1 |
| 20260903004731 | 64 | 0 | 1.0 | 1.0 | 0.00 | 0.14 | 0.14 | 99 | 1019.1 |
| 20260903004226 | 64 | 41 | 1.0 | 1.0 | 0.00 | 0.14 | 0.14 | 99 | 1019.2 |
| 20260903003722 | 64 | 28 | 1.0 | 1.0 | 0.00 | 0.14 | 0.14 | 99 | 1019.3 |
| 20260903003217 | 64 | 8 | 0.0 | 1.0 | 0.00 | 0.14 | 0.14 | 99 | 1019.7 |
| 20260903002711 | 64 | 71 | 1.0 | 2.0 | 0.00 | 0.14 | 0.14 | 99 | 1019.8 |
| 20260903002206 | 64 | 25 | 0.0 | 0.0 | 0.00 | 0.14 | 0.14 | 99 | 1019.9 |
| 20260903001701 | 64 | 15 | 0.0 | 0.0 | 0.00 | 0.14 | 0.14 | 99 | 1019.9 |
| 20260903001155 | 64 | 6 | 0.0 | 0.0 | 0.00 | 0.14 | 0.14 | 99 | 1019.7 |
| 20260903000650 | 64 | 17 | 0.0 | 0.0 | 0.00 | 0.14 | 0.14 | 99 | 1019.9 |
| 20260903000149 | 64 | 6 | 1.0 | 1.0 | 0.00 | 0.14 | 0.14 | 99 | 1019.9 |
| 20260902235643 | 64 | 42 | 0.0 | 1.0 | 0.00 | 0.14 | 0.14 | 99 | 1019.7 |
| 20260902235138 | 64 | 7 | 0.0 | 0.0 | 0.00 | 0.14 | 0.14 | 99 | 1019.7 |
| 20260902234637 | 64 | 62 | 2.0 | 3.0 | 0.00 | 0.14 | 0.14 | 99 | 1019.6 |
| 20260902234137 | 64 | 15 | 0.0 | 0.0 | 0.07 | 0.14 | 0.14 | 99 | 1019.3 |
| 20260902233632 | 64 | 11 | 0.0 | 0.0 | 0.07 | 0.14 | 0.14 | 99 | 1019.6 |
| 20260902233131 | 64 | 15 | 0.0 | 0.0 | 0.00 | 0.13 | 0.13 | 99 | 1019.3 |
| 20260902232626 | 64 | 14 | 0.0 | 0.0 | 0.00 | 0.13 | 0.13 | 99 | 1019.3 |
| 20260902232125 | 64 | 29 | 0.0 | 1.0 | 0.00 | 0.13 | 0.13 | 99 | 1019.6 |
| 20260902231625 | 64 | 9 | 1.0 | 1.0 | 0.00 | 0.13 | 0.13 | 99 | 1019.3 |
| 20260902231124 | 64 | 29 | 3.0 | 3.0 | 0.00 | 0.13 | 0.13 | 99 | 1019.2 |
| 20260902230620 | 64 | 34 | 0.0 | 1.0 | 0.00 | 0.13 | 0.13 | 99 | 1019.5 |
| 20260902230118 | 64 | 349 | 0.0 | 0.0 | 0.00 | 0.13 | 0.13 | 99 | 1019.2 |
| 20260902225614 | 64 | 21 | 1.0 | 1.0 | 0.00 | 0.13 | 0.13 | 99 | 1019.5 |
| 20260902225113 | 64 | 13 | 0.0 | 0.0 | 0.00 | 0.13 | 0.13 | 99 | 1019.6 |
| 20260902224612 | 64 | 22 | 0.0 | 0.0 | 0.00 | 0.13 | 0.13 | 99 | 1019.6 |
| 20260902224108 | 64 | 22 | 0.0 | 0.0 | 0.05 | 0.13 | 0.13 | 99 | 1019.5 |
| 20260902223604 | 64 | 31 | 0.0 | 0.0 | 0.05 | 0.13 | 0.13 | 99 | 1019.5 |
| 20260902223103 | 64 | 38 | 0.0 | 0.0 | 0.00 | 0.12 | 0.12 | 99 | 1019.8 |
| 20260902222602 | 64 | 23 | 0.0 | 0.0 | 0.00 | 0.12 | 0.12 | 99 | 1019.9 |
| 20260902222101 | 64 | 34 | 0.0 | 1.0 | 0.00 | 0.12 | 0.12 | 99 | 1019.8 |
| 20260902221555 | 65 | 33 | 0.0 | 0.0 | 0.00 | 0.12 | 0.12 | 99 | 1019.8 |
| 20260902221050 | 65 | 66 | 1.0 | 1.0 | 0.00 | 0.12 | 0.12 | 99 | 1020.1 |
| 20260902220545 | 65 | 16 | 0.0 | 0.0 | 0.00 | 0.12 | 0.12 | 99 | 1019.9 |
| 20260902220040 | 65 | 21 | 0.0 | 0.0 | 0.00 | 0.12 | 0.12 | 99 | 1020.0 |
| 20260902215536 | 65 | 33 | 0.0 | 0.0 | 0.07 | 0.12 | 0.12 | 99 | 1019.8 |
| 20260902215031 | 65 | 28 | 0.0 | 0.0 | 0.07 | 0.12 | 0.12 | 99 | 1019.9 |
| 20260902214526 | 65 | 21 | 2.0 | 2.0 | 0.00 | 0.11 | 0.11 | 99 | 1019.8 |
| 20260902214025 | 65 | 331 | 1.0 | 2.0 | 0.00 | 0.11 | 0.11 | 99 | 1020.0 |
| 20260902213521 | 65 | 38 | 0.0 | 1.0 | 0.00 | 0.11 | 0.11 | 99 | 1019.9 |
| 20260902213020 | 65 | 4 | 1.0 | 2.0 | 0.00 | 0.11 | 0.11 | 99 | 1019.9 |
| 20260902212516 | 64 | 66 | 1.0 | 1.0 | 0.00 | 0.11 | 0.11 | 99 | 1020.0 |
| 20260902212012 | 65 | 36 | 0.0 | 0.0 | 0.00 | 0.11 | 0.11 | 99 | 1019.7 |
| 20260902211508 | 64 | 294 | 1.0 | 2.0 | 0.00 | 0.11 | 0.11 | 99 | 1019.5 |
| 20260902211003 | 65 | 297 | 1.0 | 1.0 | 0.00 | 0.11 | 0.11 | 99 | 1019.2 |
| 20260902210502 | 65 | 44 | 1.0 | 2.0 | 0.00 | 0.11 | 0.11 | 99 | 1019.5 |
| 20260902210001 | 65 | 21 | 1.0 | 1.0 | 0.00 | 0.11 | 0.11 | 99 | 1019.8 |
| 20260902205456 | 65 | 21 | 1.0 | 1.0 | 0.00 | 0.11 | 0.11 | 99 | 1019.9 |
| 20260902204952 | 65 | 52 | 5.0 | 8.0 | 0.00 | 0.11 | 0.11 | 99 | 1019.8 |
| 20260902204451 | 65 | 52 | 5.0 | 8.0 | 0.00 | 0.11 | 0.11 | 99 | 1019.8 |
| 20260902203947 | 65 | 35 | 1.0 | 1.0 | 0.00 | 0.11 | 0.11 | 99 | 1020.1 |
| 20260902203442 | 65 | 25 | 1.0 | 1.0 | 0.00 | 0.11 | 0.11 | 99 | 1020.1 |
| 20260902202941 | 65 | 49 | 0.0 | 1.0 | 0.07 | 0.11 | 0.11 | 99 | 1020.3 |
| 20260902202437 | 65 | 20 | 0.0 | 0.0 | 0.07 | 0.11 | 0.11 | 99 | 1020.1 |
| 20260902201934 | 65 | 14 | 0.0 | 1.0 | 0.00 | 0.10 | 0.10 | 99 | 1020.7 |
| 20260902201428 | 65 | 8 | 0.0 | 0.0 | 0.00 | 0.10 | 0.10 | 99 | 1020.7 |
| 20260902200923 | 65 | 6 | 0.0 | 0.0 | 0.00 | 0.10 | 0.10 | 99 | 1020.4 |
| 20260902200418 | 65 | 24 | 0.0 | 0.0 | 0.00 | 0.10 | 0.10 | 99 | 1020.5 |
| 20260902195913 | 65 | 61 | 1.0 | 1.0 | 0.00 | 0.10 | 0.10 | 99 | 1020.4 |
| 20260902195408 | 65 | 17 | 0.0 | 0.0 | 0.00 | 0.10 | 0.10 | 99 | 1020.3 |
| 20260902194903 | 65 | 65 | 0.0 | 1.0 | 0.00 | 0.10 | 0.10 | 99 | 1020.3 |
| 20260902194402 | 65 | 13 | 0.0 | 0.0 | 0.00 | 0.10 | 0.10 | 99 | 1020.1 |
| 20260902193857 | 65 | 18 | 0.0 | 0.0 | 0.00 | 0.10 | 0.10 | 99 | 1020.2 |
| 20260902193354 | 65 | 30 | 0.0 | 0.0 | 0.00 | 0.10 | 0.10 | 99 | 1020.1 |
| 20260902192852 | 65 | 23 | 0.0 | 0.0 | 0.00 | 0.10 | 0.10 | 99 | 1020.3 |
| 20260902192351 | 65 | 10 | 1.0 | 1.0 | 0.00 | 0.10 | 0.10 | 99 | 1020.4 |
| 20260902191845 | 65 | 18 | 0.0 | 0.0 | 0.00 | 0.10 | 0.10 | 99 | 1020.1 |
| 20260902191341 | 65 | 27 | 1.0 | 2.0 | 0.00 | 0.10 | 0.10 | 99 | 1020.3 |
| 20260902190836 | 65 | 39 | 0.0 | 1.0 | 0.00 | 0.10 | 0.10 | 99 | 1020.3 |
| 20260902190335 | 64 | 25 | 0.0 | 0.0 | 0.00 | 0.10 | 0.10 | 99 | 1020.4 |
| 20260902185832 | 64 | 62 | 0.0 | 1.0 | 0.00 | 0.10 | 0.10 | 99 | 1020.5 |
| 20260902185327 | 64 | 49 | 1.0 | 1.0 | 0.00 | 0.10 | 0.10 | 99 | 1020.5 |
| 20260902184822 | 65 | 25 | 1.0 | 1.0 | 0.00 | 0.10 | 0.10 | 99 | 1020.3 |
| 20260902184318 | 64 | 49 | 1.0 | 1.0 | 0.00 | 0.10 | 0.10 | 99 | 1020.7 |
| 20260902183813 | 65 | 5 | 2.0 | 3.0 | 0.00 | 0.10 | 0.10 | 99 | 1020.6 |
| 20260902183309 | 64 | 358 | 1.0 | 1.0 | 0.00 | 0.10 | 0.10 | 99 | 1020.6 |
| 20260902182805 | 65 | 27 | 0.0 | 0.0 | 0.00 | 0.10 | 0.10 | 99 | 1020.9 |
| 20260902182305 | 64 | 16 | 0.0 | 0.0 | 0.00 | 0.10 | 0.10 | 99 | 1020.8 |
| 20260902181757 | 64 | 10 | 0.0 | 0.0 | 0.00 | 0.10 | 0.10 | 99 | 1021.0 |
| 20260902181252 | 64 | 37 | 1.0 | 1.0 | 0.00 | 0.10 | 0.10 | 99 | 1021.1 |
| 20260902180747 | 64 | 17 | 0.0 | 1.0 | 0.00 | 0.10 | 0.10 | 99 | 1021.4 |
| 20260902180242 | 64 | 7 | 0.0 | 1.0 | 0.00 | 0.10 | 0.10 | 99 | 1021.4 |
| 20260902175737 | 64 | 340 | 0.0 | 0.0 | 0.00 | 0.10 | 0.10 | 99 | 1021.4 |
| 20260902175233 | 64 | 71 | 1.0 | 1.0 | 0.00 | 0.10 | 0.10 | 99 | 1021.5 |
| 20260902174728 | 64 | 7 | 1.0 | 1.0 | 0.00 | 0.10 | 0.10 | 99 | 1021.5 |
| 20260902174224 | 64 | 18 | 0.0 | 1.0 | 0.05 | 0.10 | 0.10 | 99 | 1021.7 |
| 20260902173719 | 64 | 16 | 0.0 | 0.0 | 0.05 | 0.10 | 0.10 | 99 | 1021.7 |
| 20260902173214 | 64 | 23 | 0.0 | 0.0 | 0.00 | 0.09 | 0.09 | 99 | 1021.4 |
| 20260902172709 | 65 | 21 | 0.0 | 0.0 | 0.00 | 0.09 | 0.09 | 99 | 1021.7 |
| 20260902172208 | 64 | 28 | 0.0 | 1.0 | 0.00 | 0.09 | 0.09 | 99 | 1021.7 |
| 20260902171703 | 64 | 22 | 0.0 | 0.0 | 0.00 | 0.09 | 0.09 | 99 | 1021.9 |
| 20260902171159 | 64 | 25 | 0.0 | 1.0 | 0.00 | 0.09 | 0.09 | 99 | 1021.3 |
| 20260902170655 | 64 | 15 | 0.0 | 0.0 | 0.00 | 0.09 | 0.09 | 99 | 1021.5 |
| 20260902170150 | 64 | 21 | 0.0 | 0.0 | 0.00 | 0.09 | 0.09 | 99 | 1021.5 |
| 20260902165644 | 64 | 12 | 1.0 | 2.0 | 0.00 | 0.09 | 0.09 | 99 | 1021.7 |
| 20260902165138 | 64 | 80 | 2.0 | 2.0 | 0.00 | 0.09 | 0.09 | 99 | 1021.2 |
| 20260902164633 | 64 | 150 | 1.0 | 1.0 | 0.00 | 0.09 | 0.09 | 99 | 1021.4 |
| 20260902164127 | 64 | 103 | 1.0 | 1.0 | 0.00 | 0.09 | 0.09 | 99 | 1021.3 |
| 20260902163622 | 64 | 15 | 0.0 | 0.0 | 0.00 | 0.09 | 0.09 | 99 | 1021.1 |
| 20260902163121 | 64 | 358 | 1.0 | 1.0 | 0.07 | 0.09 | 0.09 | 99 | 1021.5 |
| 20260902162620 | 64 | 347 | 1.0 | 1.0 | 0.07 | 0.09 | 0.09 | 99 | 1021.4 |
| 20260902162115 | 64 | 14 | 0.0 | 0.0 | 0.00 | 0.08 | 0.08 | 99 | 1021.7 |
| 20260902161610 | 64 | 33 | 1.0 | 1.0 | 0.05 | 0.08 | 0.08 | 99 | 1021.8 |
| 20260902161106 | 64 | 26 | 0.0 | 1.0 | 0.05 | 0.08 | 0.08 | 99 | 1021.7 |
| 20260902160601 | 64 | 33 | 1.0 | 1.0 | 0.00 | 0.07 | 0.07 | 99 | 1021.7 |
| 20260902160056 | 64 | 57 | 0.0 | 1.0 | 0.00 | 0.07 | 0.07 | 99 | 1021.9 |
| 20260902155544 | 64 | 18 | 0.0 | 1.0 | 0.00 | 0.07 | 0.07 | 99 | 1021.8 |
| 20260902155043 | 64 | 7 | 0.0 | 0.0 | 0.00 | 0.07 | 0.07 | 99 | 1021.8 |
| 20260902154538 | 64 | 30 | 0.0 | 0.0 | 0.00 | 0.07 | 0.07 | 99 | 1021.3 |
| 20260902154033 | 64 | 6 | 0.0 | 0.0 | 0.07 | 0.07 | 0.07 | 99 | 1021.4 |
| 20260902153532 | 64 | 23 | 0.0 | 0.0 | 0.07 | 0.07 | 0.07 | 99 | 1021.4 |
| 20260902153027 | 64 | 23 | 0.0 | 0.0 | 0.00 | 0.06 | 0.06 | 99 | 1021.7 |
| 20260902152524 | 64 | 29 | 0.0 | 1.0 | 0.00 | 0.06 | 0.06 | 99 | 1021.4 |
| 20260902152019 | 63 | 16 | 0.0 | 0.0 | 0.00 | 0.06 | 0.06 | 99 | 1021.3 |
| 20260902151515 | 63 | 46 | 0.0 | 1.0 | 0.00 | 0.06 | 0.06 | 99 | 1021.3 |
| 20260902151014 | 63 | 75 | 1.0 | 1.0 | 0.05 | 0.06 | 0.06 | 99 | 1021.3 |
| 20260902150509 | 63 | 137 | 1.0 | 1.0 | 0.24 | 0.06 | 0.06 | 99 | 1020.9 |
| 20260902150004 | 63 | 338 | 1.0 | 1.0 | 0.19 | 0.05 | 0.05 | 99 | 1021.4 |
| 20260902145459 | 63 | 19 | 0.0 | 0.0 | 0.00 | 0.02 | 0.02 | 99 | 1021.3 |
| 20260902144953 | 63 | 324 | 2.0 | 2.0 | 0.00 | 0.02 | 0.02 | 99 | 1021.3 |
| 20260902144450 | 63 | 349 | 0.0 | 0.0 | 0.00 | 0.02 | 0.02 | 99 | 1021.5 |
| 20260902143944 | 63 | 19 | 1.0 | 2.0 | 0.00 | 0.02 | 0.02 | 99 | 1021.3 |
| 20260902143440 | 63 | 12 | 1.0 | 2.0 | 0.00 | 0.02 | 0.02 | 99 | 1021.5 |
| 20260902142935 | 63 | 64 | 1.0 | 1.0 | 0.00 | 0.02 | 0.02 | 99 | 1021.2 |
| 20260902142431 | 63 | 124 | 1.0 | 2.0 | 0.00 | 0.02 | 0.02 | 99 | 1021.3 |
| 20260902141926 | 63 | 210 | 0.0 | 1.0 | 0.00 | 0.02 | 0.02 | 99 | 1021.4 |
| 20260902141421 | 63 | 22 | 1.0 | 1.0 | 0.00 | 0.02 | 0.02 | 99 | 1021.7 |
| 20260902140920 | 63 | 46 | 1.0 | 1.0 | 0.00 | 0.02 | 0.02 | 99 | 1021.9 |
| 20260902140416 | 63 | 25 | 0.0 | 1.0 | 0.00 | 0.02 | 0.02 | 99 | 1021.9 |
| 20260902135915 | 63 | 15 | 0.0 | 0.0 | 0.00 | 0.02 | 0.02 | 99 | 1021.9 |
| 20260902135412 | 63 | 62 | 1.0 | 1.0 | 0.00 | 0.02 | 0.02 | 99 | 1022.0 |
| 20260902134910 | 63 | 11 | 0.0 | 0.0 | 0.00 | 0.02 | 0.02 | 99 | 1021.8 |
| 20260902134407 | 63 | 42 | 0.0 | 0.0 | 0.00 | 0.02 | 0.02 | 99 | 1021.2 |
| 20260902133907 | 63 | 18 | 0.0 | 0.0 | 0.00 | 0.02 | 0.02 | 99 | 1021.7 |
| 20260902133401 | 63 | 18 | 0.0 | 0.0 | 0.00 | 0.02 | 0.02 | 99 | 1021.8 |
| 20260902132856 | 63 | 50 | 0.0 | 1.0 | 0.00 | 0.02 | 0.02 | 99 | 1021.3 |
| 20260902132351 | 63 | 48 | 1.0 | 1.0 | 0.00 | 0.02 | 0.02 | 99 | 1021.3 |
| 20260902131846 | 63 | 32 | 1.0 | 1.0 | 0.00 | 0.02 | 0.02 | 99 | 1021.7 |
| 20260902131343 | 63 | 19 | 0.0 | 0.0 | 0.00 | 0.02 | 0.02 | 99 | 1021.4 |
| 20260902130842 | 63 | 37 | 0.0 | 0.0 | 0.00 | 0.02 | 0.02 | 99 | 1021.3 |
| 20260902130338 | 63 | 4 | 0.0 | 1.0 | 0.00 | 0.02 | 0.02 | 99 | 1021.8 |
| 20260902125833 | 63 | 9 | 0.0 | 0.0 | 0.00 | 0.02 | 0.02 | 99 | 1021.3 |
| 20260902125329 | 63 | 30 | 0.0 | 1.0 | 0.00 | 0.02 | 0.02 | 99 | 1021.2 |
| 20260902124825 | 63 | 15 | 0.0 | 1.0 | 0.00 | 0.02 | 0.02 | 99 | 1021.1 |
| 20260902124321 | 63 | 20 | 0.0 | 0.0 | 0.00 | 0.02 | 0.02 | 99 | 1021.1 |
| 20260902123815 | 63 | 32 | 0.0 | 0.0 | 0.00 | 0.02 | 0.02 | 99 | 1021.1 |
| 20260902123312 | 63 | 328 | 1.0 | 1.0 | 0.00 | 0.02 | 0.02 | 99 | 1020.9 |
| 20260902122810 | 63 | 25 | 0.0 | 0.0 | 0.00 | 0.02 | 0.02 | 99 | 1021.0 |
| 20260902122307 | 63 | 355 | 1.0 | 2.0 | 0.00 | 0.02 | 0.02 | 99 | 1021.1 |
| 20260902121806 | 63 | 12 | 0.0 | 1.0 | 0.00 | 0.02 | 0.02 | 99 | 1020.9 |
| 20260902121301 | 63 | 42 | 1.0 | 2.0 | 0.00 | 0.02 | 0.02 | 99 | 1021.1 |
| 20260902120751 | 63 | 25 | 0.0 | 0.0 | 0.00 | 0.02 | 0.02 | 99 | 1021.1 |
| 20260902120247 | 63 | 23 | 0.0 | 0.0 | 0.00 | 0.02 | 0.02 | 99 | 1020.9 |
| 20260902115742 | 64 | 18 | 0.0 | 0.0 | 0.00 | 0.02 | 0.02 | 99 | 1020.6 |
| 20260902115238 | 64 | 50 | 1.0 | 1.0 | 0.05 | 0.02 | 0.02 | 99 | 1020.7 |
| 20260902114734 | 64 | 22 | 0.0 | 0.0 | 0.00 | 0.01 | 0.01 | 99 | 1020.5 |
| 20260902114230 | 63 | 23 | 0.0 | 1.0 | 0.00 | 0.01 | 0.01 | 99 | 1020.9 |
| 20260902113724 | 64 | 37 | 1.0 | 1.0 | 0.00 | 0.01 | 0.01 | 99 | 1020.7 |
| 20260902113220 | 64 | 15 | 0.0 | 0.0 | 0.00 | 0.01 | 0.01 | 99 | 1020.5 |
| 20260902112719 | 64 | 17 | 0.0 | 1.0 | 0.00 | 0.01 | 0.01 | 99 | 1020.8 |
| 20260902112216 | 64 | 356 | 1.0 | 1.0 | 0.00 | 0.01 | 0.01 | 99 | 1020.5 |
| 20260902111711 | 64 | 15 | 0.0 | 0.0 | 0.00 | 0.01 | 0.01 | 99 | 1020.6 |
| 20260902111207 | 64 | 344 | 1.0 | 1.0 | 0.00 | 0.01 | 0.01 | 99 | 1020.6 |
| 20260902110703 | 64 | 34 | 0.0 | 1.0 | 0.00 | 0.01 | 0.01 | 99 | 1020.7 |
| 20260902110159 | 64 | 18 | 0.0 | 0.0 | 0.00 | 0.01 | 0.01 | 99 | 1020.7 |
| 20260902105658 | 64 | 13 | 1.0 | 1.0 | 0.00 | 0.01 | 0.01 | 99 | 1020.7 |
| 20260902105154 | 64 | 7 | 0.0 | 0.0 | 0.00 | 0.01 | 0.01 | 99 | 1020.6 |
| 20260902104648 | 64 | 24 | 0.0 | 1.0 | 0.00 | 0.01 | 0.01 | 99 | 1020.4 |
| 20260902104144 | 64 | 15 | 2.0 | 2.0 | 0.00 | 0.01 | 0.01 | 99 | 1020.6 |
| 20260902103643 | 64 | 22 | 0.0 | 0.0 | 0.00 | 0.01 | 0.01 | 99 | 1020.6 |
| 20260902103139 | 64 | 346 | 1.0 | 1.0 | 0.00 | 0.01 | 0.01 | 99 | 1020.7 |
| 20260902102635 | 64 | 10 | 1.0 | 1.0 | 0.00 | 0.01 | 0.01 | 99 | 1020.8 |
| 20260902102132 | 64 | 14 | 0.0 | 1.0 | 0.00 | 0.01 | 0.01 | 99 | 1020.6 |
| 20260902101627 | 64 | 14 | 0.0 | 0.0 | 0.00 | 0.01 | 0.01 | 99 | 1020.5 |
| 20260902101126 | 64 | 20 | 0.0 | 0.0 | 0.00 | 0.01 | 0.01 | 99 | 1020.5 |
| 20260902100621 | 64 | 32 | 0.0 | 0.0 | 0.00 | 0.01 | 0.01 | 99 | 1020.6 |
| 20260902100116 | 65 | 16 | 0.0 | 1.0 | 0.00 | 0.01 | 0.01 | 99 | 1020.2 |
| 20260902095615 | 65 | 17 | 1.0 | 1.0 | 0.00 | 0.01 | 0.01 | 99 | 1020.6 |
| 20260902095115 | 65 | 14 | 0.0 | 0.0 | 0.00 | 0.01 | 0.01 | 99 | 1020.5 |
| 20260902094610 | 65 | 25 | 0.0 | 0.0 | 0.00 | 0.01 | 0.01 | 99 | 1020.5 |
| 20260902094106 | 66 | 11 | 0.0 | 0.0 | 0.00 | 0.01 | 0.01 | 99 | 1020.4 |
| 20260902093605 | 66 | 22 | 0.0 | 0.0 | 0.00 | 0.01 | 0.01 | 99 | 1020.5 |
| 20260902093054 | 66 | 27 | 0.0 | 0.0 | 0.00 | 0.01 | 0.01 | 99 | 1020.4 |
| 20260902092549 | 66 | 22 | 0.0 | 0.0 | 0.00 | 0.01 | 0.01 | 99 | 1020.4 |
| 20260902092044 | 66 | 32 | 0.0 | 0.0 | 0.00 | 0.01 | 0.01 | 99 | 1020.3 |
| 20260902091534 | 66 | 17 | 0.0 | 0.0 | 0.00 | 0.01 | 0.01 | 99 | 1020.1 |
| 20260902091030 | 66 | 37 | 0.0 | 1.0 | 0.00 | 0.01 | 0.01 | 99 | 1020.3 |
| 20260902090526 | 66 | 29 | 1.0 | 1.0 | 0.00 | 0.01 | 0.01 | 99 | 1020.3 |
| 20260902090024 | 66 | 8 | 0.0 | 0.0 | 0.00 | 0.01 | 0.01 | 99 | 1020.3 |
| 20260902085518 | 66 | 28 | 0.0 | 0.0 | 0.00 | 0.01 | 0.01 | 99 | 1020.1 |
| 20260902085014 | 67 | 43 | 1.0 | 1.0 | 0.00 | 0.01 | 0.01 | 99 | 1020.0 |
| 20260902084510 | 67 | 21 | 0.0 | 0.0 | 0.00 | 0.01 | 0.01 | 99 | 1020.2 |
| 20260902084005 | 67 | 13 | 1.0 | 1.0 | 0.00 | 0.01 | 0.01 | 99 | 1019.8 |
| 20260902083501 | 67 | 18 | 0.0 | 0.0 | 0.00 | 0.01 | 0.01 | 99 | 1020.0 |
| 20260902082955 | 67 | 18 | 0.0 | 0.0 | 0.00 | 0.01 | 0.01 | 99 | 1020.0 |
| 20260902082450 | 67 | 17 | 0.0 | 0.0 | 0.00 | 0.01 | 0.01 | 99 | 1019.9 |
| 20260902081946 | 68 | 16 | 1.0 | 1.0 | 0.00 | 0.01 | 0.01 | 99 | 1019.8 |
| 20260902081444 | 68 | 16 | 0.0 | 0.0 | 0.00 | 0.01 | 0.01 | 99 | 1019.9 |
| 20260902080938 | 68 | 18 | 0.0 | 0.0 | 0.00 | 0.01 | 0.01 | 99 | 1019.9 |
| 20260902080435 | 68 | 48 | 0.0 | 1.0 | 0.07 | 0.01 | 0.01 | 99 | 1019.9 |
| 20260902075933 | 68 | 26 | 0.0 | 1.0 | 0.07 | 0.01 | 0.01 | 99 | 1019.9 |
| 20260902075430 | 68 | 9 | 0.0 | 0.0 | 0.00 | 0.00 | 0.00 | 99 | 1019.8 |
| 20260902074925 | 68 | 21 | 0.0 | 1.0 | 0.00 | 0.00 | 0.00 | 99 | 1019.7 |
| 20260902074420 | 68 | 21 | 0.0 | 0.0 | 0.00 | 0.00 | 0.00 | 99 | 1019.8 |
| 20260902073915 | 68 | 21 | 0.0 | 0.0 | 0.00 | 0.00 | 0.00 | 99 | 1019.7 |
| 20260902073411 | 68 | 12 | 0.0 | 0.0 | 0.00 | 0.00 | 0.00 | 99 | 1019.8 |
| 20260902072907 | 68 | 14 | 0.0 | 0.0 | 0.00 | 0.00 | 0.00 | 99 | 1019.8 |
| 20260902072403 | 68 | 15 | 0.0 | 0.0 | 0.00 | 0.00 | 0.00 | 99 | 1019.9 |
| 20260902071859 | 68 | 16 | 0.0 | 0.0 | 0.00 | 0.00 | 0.00 | 99 | 1019.6 |
| 20260902071358 | 68 | 21 | 0.0 | 0.0 | 0.00 | 0.00 | 0.00 | 99 | 1019.7 |
| 20260902070855 | 68 | 17 | 0.0 | 0.0 | 0.00 | 0.00 | 0.00 | 99 | 1019.7 |
| 20260902070350 | 68 | 14 | 0.0 | 0.0 | 0.00 | 0.00 | 0.00 | 99 | 1019.9 |
| 20260902065848 | 68 | 15 | 0.0 | 0.0 | 0.00 | 0.00 | 0.00 | 99 | 1019.6 |
| 20260902065344 | 68 | 16 | 0.0 | 0.0 | 0.00 | 0.00 | 0.00 | 99 | 1019.8 |
| 20260902064839 | 68 | 25 | 0.0 | 1.0 | 0.00 | 0.00 | 0.00 | 99 | 1019.7 |
| 20260902064335 | 68 | 15 | 0.0 | 0.0 | 0.00 | 0.00 | 0.00 | 99 | 1019.7 |
| 20260902063830 | 68 | 21 | 0.0 | 0.0 | 0.00 | 0.00 | 0.00 | 99 | 1020.0 |
| 20260902063325 | 68 | 24 | 0.0 | 0.0 | 0.00 | 0.00 | 0.00 | 99 | 1020.2 |
| 20260902062819 | 68 | 18 | 0.0 | 0.0 | 0.00 | 0.00 | 0.00 | 99 | 1020.0 |
| 20260902062314 | 68 | 16 | 0.0 | 0.0 | 0.00 | 0.00 | 0.00 | 99 | 1019.9 |
| 20260902061813 | 68 | 12 | 0.0 | 0.0 | 0.00 | 0.00 | 0.00 | 99 | 1019.6 |
| 20260902061309 | 68 | 73 | 0.0 | 1.0 | 0.00 | 0.00 | 0.00 | 99 | 1019.8 |
| 20260902060805 | 68 | 23 | 0.0 | 0.0 | 0.00 | 0.00 | 0.00 | 99 | 1019.8 |
| 20260902060301 | 68 | 18 | 0.0 | 0.0 | 0.00 | 0.00 | 0.00 | 99 | 1019.9 |
| 20260902055756 | 68 | 17 | 0.0 | 0.0 | 0.00 | 0.00 | 0.00 | 99 | 1019.8 |
| 20260902055252 | 68 | 17 | 0.0 | 0.0 | 0.00 | 0.00 | 0.00 | 99 | 1019.7 |
| 20260902054747 | 68 | 19 | 0.0 | 0.0 | 0.00 | 0.00 | 0.00 | 99 | 1019.7 |
| 20260902054242 | 68 | 10 | 0.0 | 0.0 | 0.00 | 0.00 | 0.00 | 99 | 1019.8 |
| 20260902053737 | 69 | 18 | 1.0 | 1.0 | 0.00 | 0.00 | 0.00 | 99 | 1019.9 |
| 20260902053236 | 69 | 14 | 0.0 | 0.0 | 0.00 | 0.00 | 0.00 | 99 | 1019.8 |
| 20260902052731 | 69 | 12 | 0.0 | 0.0 | 0.00 | 0.00 | 0.00 | 99 | 1019.7 |
| 20260902052227 | 69 | 26 | 0.0 | 0.0 | 0.00 | 0.00 | 0.00 | 99 | 1019.9 |
| 20260902051726 | 69 | 11 | 0.0 | 0.0 | 0.00 | 0.00 | 0.00 | 99 | 1020.1 |
| 20260902051220 | 69 | 11 | 0.0 | 0.0 | 0.00 | 0.00 | 0.00 | 99 | 1019.9 |
| 20260902050715 | 69 | 343 | 0.0 | 1.0 | 0.00 | 0.00 | 0.00 | 99 | 1019.8 |
| 20260902050210 | 69 | 17 | 0.0 | 0.0 | 0.00 | 0.00 | 0.00 | 99 | 1019.7 |
| 20260902045705 | 69 | 17 | 0.0 | 0.0 | 0.00 | 0.00 | 0.00 | 99 | 1019.3 |
| 20260902045201 | 69 | 28 | 1.0 | 1.0 | 0.00 | 0.00 | 0.00 | 99 | 1019.7 |
| 20260902044656 | 69 | 18 | 0.0 | 0.0 | 0.00 | 0.00 | 0.00 | 99 | 1019.8 |
| 20260902044152 | 69 | 15 | 1.0 | 1.0 | 0.00 | 0.00 | 0.00 | 99 | 1019.8 |
| 20260902043647 | 69 | 17 | 0.0 | 0.0 | 0.00 | 0.00 | 0.00 | 99 | 1019.9 |
| 20260902043142 | 69 | 24 | 0.0 | 0.0 | 0.00 | 0.00 | 0.00 | 99 | 1019.7 |
| 20260902042641 | 69 | 6 | 0.0 | 0.0 | 0.00 | 0.00 | 0.00 | 99 | 1019.8 |
| 20260902042137 | 69 | 28 | 0.0 | 0.0 | 0.00 | 0.00 | 0.00 | 99 | 1019.7 |
| 20260902041636 | 69 | 22 | 0.0 | 0.0 | 0.00 | 0.00 | 0.00 | 99 | 1019.9 |
| 20260902041131 | 69 | 16 | 0.0 | 0.0 | 0.00 | 0.00 | 0.00 | 99 | 1019.7 |
| 20260902040631 | 68 | 21 | 0.0 | 0.0 | 0.00 | 0.00 | 0.00 | 99 | 1019.7 |
| 20260902040126 | 68 | 23 | 0.0 | 0.0 | 0.00 | 0.00 | 0.00 | 99 | 1019.3 |
| 20260902035624 | 68 | 15 | 0.0 | 0.0 | 0.00 | 1.13 | 1.13 | 99 | 1019.5 |
| 20260902035120 | 68 | 19 | 0.0 | 0.0 | 0.00 | 1.13 | 1.13 | 99 | 1019.0 |
| 20260902034619 | 68 | 16 | 0.0 | 0.0 | 0.00 | 1.13 | 1.13 | 99 | 1019.5 |
| 20260902034113 | 68 | 17 | 0.0 | 0.0 | 0.00 | 1.13 | 1.13 | 99 | 1019.0 |
| 20260902033612 | 68 | 17 | 0.0 | 0.0 | 0.00 | 1.13 | 1.13 | 99 | 1019.2 |
| 20260902033108 | 68 | 17 | 0.0 | 0.0 | 0.00 | 1.13 | 1.13 | 99 | 1019.1 |
| 20260902032606 | 68 | 16 | 0.0 | 0.0 | 0.00 | 1.13 | 1.13 | 99 | 1019.1 |
| 20260902032101 | 68 | 9 | 0.0 | 0.0 | 0.00 | 1.13 | 1.13 | 99 | 1018.9 |
| 20260902031555 | 67 | 13 | 0.0 | 0.0 | 0.00 | 1.13 | 1.13 | 99 | 1019.0 |
| 20260902031051 | 67 | 13 | 0.0 | 0.0 | 0.00 | 1.13 | 1.13 | 99 | 1018.7 |
| 20260902030546 | 67 | 17 | 0.0 | 0.0 | 0.00 | 1.13 | 1.13 | 99 | 1018.6 |
| 20260902030045 | 67 | 11 | 0.0 | 0.0 | 0.00 | 1.13 | 1.13 | 99 | 1018.4 |
| 20260902025540 | 67 | 1 | 0.0 | 0.0 | 0.00 | 1.13 | 1.13 | 99 | 1018.2 |
| 20260902025035 | 68 | 17 | 0.0 | 0.0 | 0.00 | 1.13 | 1.13 | 99 | 1018.3 |
| 20260902024531 | 67 | 21 | 0.0 | 0.0 | 0.00 | 1.13 | 1.13 | 99 | 1018.2 |
| 20260902024031 | 67 | 16 | 0.0 | 0.0 | 0.00 | 1.13 | 1.13 | 99 | 1018.2 |
| 20260902023527 | 68 | 20 | 0.0 | 0.0 | 0.00 | 1.13 | 1.13 | 99 | 1018.2 |
| 20260902023021 | 67 | 23 | 0.0 | 0.0 | 0.00 | 1.13 | 1.13 | 99 | 1018.2 |
| 20260902022516 | 68 | 14 | 0.0 | 0.0 | 0.00 | 1.13 | 1.13 | 99 | 1018.3 |
| 20260902022012 | 68 | 16 | 0.0 | 0.0 | 0.00 | 1.13 | 1.13 | 99 | 1018.0 |
| 20260902021507 | 68 | 17 | 0.0 | 0.0 | 0.00 | 1.13 | 1.13 | 99 | 1018.2 |
| 20260902021002 | 68 | 16 | 0.0 | 0.0 | 0.00 | 1.13 | 1.13 | 99 | 1018.1 |
| 20260902020458 | 68 | 16 | 0.0 | 0.0 | 0.00 | 1.13 | 1.13 | 99 | 1018.2 |
| 20260902015954 | 69 | 16 | 0.0 | 0.0 | 0.00 | 1.13 | 1.13 | 99 | 1018.1 |
| 20260902015449 | 69 | 18 | 0.0 | 0.0 | 0.00 | 1.13 | 1.13 | 99 | 1018.2 |
| 20260902014944 | 69 | 30 | 1.0 | 1.0 | 0.00 | 1.13 | 1.13 | 99 | 1018.1 |
| 20260902014441 | 69 | 17 | 1.0 | 1.0 | 0.00 | 1.13 | 1.13 | 99 | 1018.3 |
| 20260902013940 | 69 | 17 | 0.0 | 1.0 | 0.00 | 1.13 | 1.13 | 99 | 1018.4 |